(314103) = 2005 EG74 = 2007 TU222

Discovered at Kitt Peak on 2005-03-03 by Spacewatch.

Orbit

Orbit type: Main Belt

Note: WebGL enabled browser required.

epoch2023-02-25.0
epoch JD2460000.5
perihelion date2022-05-22.11700
perihelion JD2459721.61700
argument of perihelion (°)40.35828
ascending node (°)20.73807
inclination (°)3.22408
eccentricity0.1832435
perihelion distance (AU)1.9232175
Tisserand w.r.t. Jupiter3.5
ΔV w.r.t. Earth (km/sec)8.7
semimajor axis (AU)2.3547013
mean anomaly (°)76.07153
mean daily motion (°/day)0.27277220
aphelion distance (AU)2.786
period (years)3.61
P-vector [x]0.48370113
P-vector [y]0.78782834
P-vector [z]0.38126071
Q-vector [x]-0.87500664
Q-vector [y]0.42537201
Q-vector [z]0.23113206
absolute magnitude17.28
phase slope0.15
uncertainty0
referenceMPEC 2023-F189
observations used428
oppositions11
arc length (days)6597
first opposition used2005
last opposition used2023
residual rms (arc-secs)0.70
perturbers coarse indicatorM-v
perturbers precise indicator003Ek
first observation date used2005-03-03.0
last observation date used2023-03-26.0
computer nameMPCLINUX
JD of orbit computation2456966.714496
perihelion JD uncertainty (days)6.4156E-05
argument of perihelion uncertainty (°)5.2018E-05
ascending node uncertainty (°)4.8284E-05
inclination uncertainty (°)4.0795E-06
eccentricity uncertainty 3.4646E-08
perihelion distance uncertainty (AU)8.7144E-08
Minimum Orbit Intersection Distances (in AU)
for orbit epoch: 2460000.5, reference: E2023-FI9
Mercury1.61266
Venus1.20312
Earth0.93585
Mars0.39385
Jupiter2.54325
Saturn7.01183
Uranus15.9079
Neptune27.7077

Observations

438 total observations over interval: 2005 03 03.18785 – 2023 03 26.220499
These data are available for download (format description).

Date (UT) J2000 RA J2000 Dec Magn Location Ref
2005 03 03.18785 11 23 15.96 +07 22 16.9 20.2 V 691 – Steward Observatory, Kitt Peak-Spacewatch MPS 128148
2005 03 03.21915 11 23 14.01 +07 22 26.8 20.4 V 691 – Steward Observatory, Kitt Peak-Spacewatch MPS 128148
2005 03 03.24463 11 23 12.44 +07 22 34.9 20.3 V 691 – Steward Observatory, Kitt Peak-Spacewatch MPS 128148
2005 03 03.33503 11 23 06.69 +07 23 01.6 19.8 R 703 – Catalina Sky Survey MPS 130068
2005 03 03.34532 11 23 06.04 +07 23 05.0 18.7 R 703 – Catalina Sky Survey MPS 130068
2005 03 03.35558 11 23 05.35 +07 23 07.9 18.4 R 703 – Catalina Sky Survey MPS 130068
2005 03 03.36591 11 23 04.77 +07 23 11.8 19.2 R 703 – Catalina Sky Survey MPS 130068
2005 03 09.29036 11 17 02.49 +07 53 25.8 19.3   704 – Lincoln Laboratory ETS, New Mexico MPS 128148
2005 03 09.30334 11 17 01.54 +07 53 30.3 19.9   704 – Lincoln Laboratory ETS, New Mexico MPS 128148
2005 03 09.31549 11 17 00.86 +07 53 34.6 19.6   704 – Lincoln Laboratory ETS, New Mexico MPS 128148
2005 03 09.32765 11 17 00.09 +07 53 38.5 19.5   704 – Lincoln Laboratory ETS, New Mexico MPS 128148
2005 03 09.34003 11 16 59.28 +07 53 42.0 19.5   704 – Lincoln Laboratory ETS, New Mexico MPS 128148
2005 03 16.33148 11 10 00.56 +08 26 19.5 19.8 R G96 – Mt. Lemmon Survey MPS 138458
2005 03 16.33804 11 10 00.16 +08 26 21.4 19.5 R G96 – Mt. Lemmon Survey MPS 138458
2005 03 16.34461 11 09 59.77 +08 26 23.1 19.3 R G96 – Mt. Lemmon Survey MPS 138458
2005 03 16.35116 11 09 59.38 +08 26 24.6 19.6 R G96 – Mt. Lemmon Survey MPS 138458
2005 04 11.19648 10 51 37.74 +09 30 09.9 18.9 R G96 – Mt. Lemmon Survey MPS 174719
2005 04 11.20289 10 51 37.52 +09 30 09.3 20.6 R G96 – Mt. Lemmon Survey MPS 174719
2005 04 11.20929 10 51 37.37 +09 30 09.2 20.7 R G96 – Mt. Lemmon Survey MPS 174719
2005 04 11.21571 10 51 37.20 +09 30 09.9 21.1 R G96 – Mt. Lemmon Survey MPS 174719
2007 09 10.41523 03 21 45.18 +18 51 51.7 20.2 V G96 – Mt. Lemmon Survey MPS 223452
2007 09 10.42123 03 21 45.46 +18 51 53.5 20.5 V G96 – Mt. Lemmon Survey MPS 223452
2007 09 10.42719 03 21 45.75 +18 51 55.4 20.6 V G96 – Mt. Lemmon Survey MPS 223452
2007 09 10.43317 03 21 46.00 +18 51 57.1 20.4 V G96 – Mt. Lemmon Survey MPS 223452
2007 09 26.33698 03 31 04.29 +20 03 08.7 19.8 V G96 – Mt. Lemmon Survey MPS 223452
2007 09 26.34350 03 31 04.40 +20 03 10.2 19.2 V G96 – Mt. Lemmon Survey MPS 223452
2007 09 26.34994 03 31 04.54 +20 03 11.6 20.4 V G96 – Mt. Lemmon Survey MPS 223452
2007 09 26.35654 03 31 04.65 +20 03 12.8 19.9 V G96 – Mt. Lemmon Survey MPS 223453
2007 10 09.65646 03 32 11.01 +20 44 33.3 19.6 R D29 – Purple Mountain Observatory, XuYi Station MPS 223692
2007 10 09.67516 03 32 10.78 +20 44 35.6 19.8 R D29 – Purple Mountain Observatory, XuYi Station MPS 223692
2007 10 09.69493 03 32 10.55 +20 44 39.3 19.7 R D29 – Purple Mountain Observatory, XuYi Station MPS 223692
2007 10 09.71650 03 32 10.23 +20 44 42.1 19.6 R D29 – Purple Mountain Observatory, XuYi Station MPS 223692
2007 10 11.40993 03 31 49.08 +20 48 36.7 19.7 V 691 – Steward Observatory, Kitt Peak-Spacewatch MPS 223692
2007 10 11.42762 03 31 48.77 +20 48 38.9 19.6 V 691 – Steward Observatory, Kitt Peak-Spacewatch MPS 223692
2007 10 11.44531 03 31 48.46 +20 48 41.3 19.6 V 691 – Steward Observatory, Kitt Peak-Spacewatch MPS 223692
2007 10 15.44355 03 30 32.38 +20 56 34.2 19.9 V 691 – Steward Observatory, Kitt Peak-Spacewatch MPS 223453
2007 10 15.46125 03 30 31.91 +20 56 36.0 19.8 V 691 – Steward Observatory, Kitt Peak-Spacewatch MPS 223453
2007 10 15.47897 03 30 31.45 +20 56 37.7 19.7 V 691 – Steward Observatory, Kitt Peak-Spacewatch MPS 223453
2007 10 19.37840 03 28 42.70 +21 02 27.9 19.4 r 699 – Lowell Observatory-LONEOS MPS 223453
2007 10 19.40217 03 28 41.82 +21 02 28.9 19.5 r 699 – Lowell Observatory-LONEOS MPS 223453
2007 10 19.40923 03 28 41.55 +21 02 30.6 19.7 V 691 – Steward Observatory, Kitt Peak-Spacewatch MPS 223453
2007 10 19.42598 03 28 41.00 +21 02 31.0 19.2 r 699 – Lowell Observatory-LONEOS MPS 223453
2007 10 19.42696 03 28 40.94 +21 02 32.0 19.7 V 691 – Steward Observatory, Kitt Peak-Spacewatch MPS 223453
2007 10 19.44471 03 28 40.30 +21 02 33.1 19.5 V 691 – Steward Observatory, Kitt Peak-Spacewatch MPS 223453
2007 10 19.44975 03 28 40.10 +21 02 32.6 19.1 r 699 – Lowell Observatory-LONEOS MPS 223453
2007 10 20.38703 03 28 09.04 +21 03 40.7 18.8 V 703 – Catalina Sky Survey MPS 223453
2007 10 20.39362 03 28 08.83 +21 03 42.0 18.9 V 703 – Catalina Sky Survey MPS 223453
2007 10 20.40029 03 28 08.58 +21 03 42.5 18.9 V 703 – Catalina Sky Survey MPS 223453
2007 10 20.40689 03 28 08.32 +21 03 42.2 19.2 V 703 – Catalina Sky Survey MPS 223453
2007 10 31.25934 03 20 05.73 +21 08 31.8   691 – Steward Observatory, Kitt Peak-Spacewatch MPS 223453
2007 10 31.26595 03 20 05.38 +21 08 31.4 18.7 V G96 – Mt. Lemmon Survey MPS 223453
2007 10 31.27433 03 20 04.92 +21 08 31.3 18.6 V G96 – Mt. Lemmon Survey MPS 223453
2007 10 31.27699 03 20 04.73 +21 08 31.7   691 – Steward Observatory, Kitt Peak-Spacewatch MPS 223453
2007 10 31.28268 03 20 04.45 +21 08 31.2 18.7 V G96 – Mt. Lemmon Survey MPS 223453
2007 10 31.29109 03 20 03.94 +21 08 31.2 18.7 V G96 – Mt. Lemmon Survey MPS 223453
2007 10 31.29463 03 20 03.72 +21 08 31.8   691 – Steward Observatory, Kitt Peak-Spacewatch MPS 223453
2007 11 01.65778 03 18 49.57 +21 08 05.7 18.6 C D35 – Lulin Observatory MPS 223453
2007 11 01.66635 03 18 49.06 +21 08 05.4 18.7 C D35 – Lulin Observatory MPS 223453
2007 11 01.67476 03 18 48.54 +21 08 05.4 18.9 C D35 – Lulin Observatory MPS 223453
2007 11 01.99715 03 18 30.56 +21 07 52.8 18.5 R 106 – Crni Vrh MPS 223453
2007 11 02.00676 03 18 30.08 +21 07 51.9 18.4 R 106 – Crni Vrh MPS 223453
2007 11 02.01637 03 18 29.46 +21 07 52.4 18.5 R 106 – Crni Vrh MPS 223453
2007 11 02.02597 03 18 28.94 +21 07 52.2 18.5 R 106 – Crni Vrh MPS 223453
2007 11 02.19881 03 18 19.77 +21 07 48.6 19.2 V 691 – Steward Observatory, Kitt Peak-Spacewatch MPS 223453
2007 11 02.21646 03 18 18.72 +21 07 48.3 19.2 V 691 – Steward Observatory, Kitt Peak-Spacewatch MPS 223453
2007 11 02.23412 03 18 17.70 +21 07 47.9 19.2 V 691 – Steward Observatory, Kitt Peak-Spacewatch MPS 223453
2007 11 02.56707 03 17 59.10 +21 07 36.6 19.1 R D29 – Purple Mountain Observatory, XuYi Station MPS 224877
2007 11 02.58509 03 17 58.03 +21 07 36.8 18.9 R D29 – Purple Mountain Observatory, XuYi Station MPS 224877
2007 11 02.60531 03 17 56.84 +21 07 36.4 19.0 R D29 – Purple Mountain Observatory, XuYi Station MPS 224877
2007 11 02.61979 03 17 55.98 +21 07 35.9 18.9 R D29 – Purple Mountain Observatory, XuYi Station MPS 224877
2007 11 03.38800 03 17 11.84 +21 07 08.1 19.0 r 699 – Lowell Observatory-LONEOS MPS 224877
2007 11 03.40629 03 17 10.74 +21 07 08.4 19.1 r 699 – Lowell Observatory-LONEOS MPS 224877
2007 11 03.42458 03 17 09.64 +21 07 06.6 19.3 r 699 – Lowell Observatory-LONEOS MPS 224877
2007 11 03.44288 03 17 08.60 +21 07 06.3 19.1 r 699 – Lowell Observatory-LONEOS MPS 224877
2007 11 04.26928 03 16 21.35 +21 06 33.3   691 – Steward Observatory, Kitt Peak-Spacewatch MPS 224877
2007 11 04.28697 03 16 20.27 +21 06 32.6   691 – Steward Observatory, Kitt Peak-Spacewatch MPS 224877
2007 11 04.30466 03 16 19.17 +21 06 31.9   691 – Steward Observatory, Kitt Peak-Spacewatch MPS 224877
2007 11 06.26748 03 14 23.22 +21 04 51.4 19.2   704 – Lincoln Laboratory ETS, New Mexico MPS 224877
2007 11 06.27962 03 14 22.44 +21 04 50.7 19.7   704 – Lincoln Laboratory ETS, New Mexico MPS 224877
2007 11 06.30369 03 14 20.89 +21 04 51.5 19.6   704 – Lincoln Laboratory ETS, New Mexico MPS 224877
2007 11 11.26215 03 09 17.03 +20 58 46.1 18.7 R H07 – 7300 Observatory, Cloudcroft MPS 226869
2007 11 11.26582 03 09 16.75 +20 58 44.8 19.8 R H07 – 7300 Observatory, Cloudcroft MPS 226869
2007 11 11.26955 03 09 16.55 +20 58 45.5 18.6 R H07 – 7300 Observatory, Cloudcroft MPS 226869
2007 11 11.34479 03 09 11.70 +20 58 39.2 18.9 r 699 – Lowell Observatory-LONEOS MPS 226869
2007 11 11.36673 03 09 10.19 +20 58 36.7 18.7 r 699 – Lowell Observatory-LONEOS MPS 226869
2007 11 11.38867 03 09 08.81 +20 58 35.0 18.9 r 699 – Lowell Observatory-LONEOS MPS 226869
2007 11 11.41063 03 09 07.41 +20 58 33.1 18.8 r 699 – Lowell Observatory-LONEOS MPS 226869
